Year,Month,Day,Hour,Minute,Value (Times are PST for temperature in C)
2003,08,26,00,00,18.90
2003,08,26,00,01,18.90
2003,08,26,00,02,18.90
2003,08,26,00,03,18.90
2003,08,26,00,04,18.90
2003,08,26,00,05,18.90
2003,08,26,00,06,18.90
2003,08,26,00,07,18.90
2003,08,26,00,08,18.90
2003,08,26,00,09,18.90
2003,08,26,00,10,19.00
2003,08,26,00,11,19.10
2003,08,26,00,12,19.10
2003,08,26,00,13,19.10
2003,08,26,00,14,19.20
2003,08,26,00,15,19.20
2003,08,26,00,16,19.30
2003,08,26,00,17,19.30
2003,08,26,00,18,19.30
2003,08,26,00,19,19.30
2003,08,26,00,20,19.40
2003,08,26,00,21,19.40
2003,08,26,00,22,19.50
2003,08,26,00,23,19.40
2003,08,26,00,24,19.40
2003,08,26,00,25,19.40
2003,08,26,00,26,19.40
2003,08,26,00,27,19.40
2003,08,26,00,28,19.40
2003,08,26,00,29,19.40
2003,08,26,00,30,19.40
2003,08,26,00,31,19.40
2003,08,26,00,32,19.40
2003,08,26,00,33,19.40
2003,08,26,00,34,19.50
2003,08,26,00,35,19.50
2003,08,26,00,36,19.50
2003,08,26,00,37,19.50
2003,08,26,00,38,19.50
2003,08,26,00,39,19.50
2003,08,26,00,40,19.50
2003,08,26,00,41,19.50
2003,08,26,00,42,19.40
2003,08,26,00,43,19.40
2003,08,26,00,44,19.40
2003,08,26,00,45,19.40
2003,08,26,00,46,19.40
2003,08,26,00,47,19.30
2003,08,26,00,48,19.20
2003,08,26,00,49,19.20
2003,08,26,00,50,19.10
2003,08,26,00,51,19.10
2003,08,26,00,52,19.10
2003,08,26,00,53,19.10
2003,08,26,00,54,19.00
2003,08,26,00,55,18.90
2003,08,26,00,56,18.90
2003,08,26,00,57,18.90
2003,08,26,00,58,18.90
2003,08,26,00,59,18.90
2003,08,26,01,00,18.90
2003,08,26,01,01,18.90
2003,08,26,01,02,18.90
2003,08,26,01,03,18.90
2003,08,26,01,04,18.90
2003,08,26,01,05,18.90
2003,08,26,01,06,18.90
2003,08,26,01,07,18.90
2003,08,26,01,08,18.90
2003,08,26,01,09,18.80
2003,08,26,01,10,18.70
2003,08,26,01,11,18.60
2003,08,26,01,12,18.50
2003,08,26,01,13,18.60
2003,08,26,01,14,18.60
2003,08,26,01,15,18.50
2003,08,26,01,16,18.50
2003,08,26,01,17,18.40
2003,08,26,01,18,18.30
2003,08,26,01,19,18.40
2003,08,26,01,20,18.40
2003,08,26,01,21,18.40
2003,08,26,01,22,18.30
2003,08,26,01,23,18.40
2003,08,26,01,24,18.40
2003,08,26,01,25,18.30
2003,08,26,01,26,18.20
2003,08,26,01,27,18.10
2003,08,26,01,28,17.90
2003,08,26,01,29,17.80
2003,08,26,01,30,17.80
2003,08,26,01,31,17.70
2003,08,26,01,32,17.60
2003,08,26,01,33,17.60
2003,08,26,01,34,17.50
2003,08,26,01,35,17.50
2003,08,26,01,36,17.40
2003,08,26,01,37,17.40
2003,08,26,01,38,17.30
2003,08,26,01,39,17.20
2003,08,26,01,40,17.20
2003,08,26,01,41,17.10
2003,08,26,01,42,17.10
2003,08,26,01,43,17.00
2003,08,26,01,44,17.00
2003,08,26,01,45,16.90
2003,08,26,01,46,16.90
2003,08,26,01,47,16.90
2003,08,26,01,48,16.90
2003,08,26,01,49,16.90
2003,08,26,01,50,16.90
2003,08,26,01,51,16.90
2003,08,26,01,52,17.00
2003,08,26,01,53,17.00
2003,08,26,01,54,17.00
2003,08,26,01,55,17.00
2003,08,26,01,56,17.10
2003,08,26,01,57,17.10
2003,08,26,01,58,17.20
2003,08,26,01,59,17.20
2003,08,26,02,00,17.20
2003,08,26,02,01,17.20
2003,08,26,02,02,17.20
2003,08,26,02,03,17.20
2003,08,26,02,04,17.20
2003,08,26,02,05,17.30
2003,08,26,02,06,17.30
2003,08,26,02,07,17.30
2003,08,26,02,08,17.40
2003,08,26,02,09,17.40
2003,08,26,02,10,17.40
2003,08,26,02,11,17.40
2003,08,26,02,12,17.50
2003,08,26,02,13,17.50
2003,08,26,02,14,17.50
2003,08,26,02,15,17.50
2003,08,26,02,16,17.50
2003,08,26,02,17,17.50
2003,08,26,02,18,17.50
2003,08,26,02,19,17.50
2003,08,26,02,20,17.50
2003,08,26,02,21,17.60
2003,08,26,02,22,17.60
2003,08,26,02,23,17.60
2003,08,26,02,24,17.60
2003,08,26,02,25,17.60
2003,08,26,02,26,17.60
2003,08,26,02,27,17.60
2003,08,26,02,28,17.60
2003,08,26,02,29,17.60
2003,08,26,02,30,17.60
2003,08,26,02,31,17.60
2003,08,26,02,32,17.60
2003,08,26,02,33,17.60
2003,08,26,02,34,17.60
2003,08,26,02,35,17.60
2003,08,26,02,36,17.60
2003,08,26,02,37,17.60
2003,08,26,02,38,17.60
2003,08,26,02,39,17.70
2003,08,26,02,40,17.70
2003,08,26,02,41,17.70
2003,08,26,02,42,17.70
2003,08,26,02,43,17.70
2003,08,26,02,44,17.70
2003,08,26,02,45,17.70
2003,08,26,02,46,17.80
2003,08,26,02,47,17.80
2003,08,26,02,48,17.80
2003,08,26,02,49,17.80
2003,08,26,02,50,17.90
2003,08,26,02,51,17.90
2003,08,26,02,52,18.00
2003,08,26,02,53,18.10
2003,08,26,02,54,18.10
2003,08,26,02,55,18.10
2003,08,26,02,56,18.20
2003,08,26,02,57,18.20
2003,08,26,02,58,18.20
2003,08,26,02,59,18.20
2003,08,26,03,00,18.30
2003,08,26,03,01,18.30
2003,08,26,03,02,18.30
2003,08,26,03,03,18.30
2003,08,26,03,04,18.30
2003,08,26,03,05,18.30
2003,08,26,03,06,18.30
2003,08,26,03,07,18.30
2003,08,26,03,08,18.30
2003,08,26,03,09,18.40
2003,08,26,03,10,18.40
2003,08,26,03,11,18.40
2003,08,26,03,12,18.40
2003,08,26,03,13,18.40
2003,08,26,03,14,18.30
2003,08,26,03,15,18.30
2003,08,26,03,16,18.30
2003,08,26,03,17,18.30
2003,08,26,03,18,18.30
2003,08,26,03,19,18.30
2003,08,26,03,20,18.30
2003,08,26,03,21,18.20
2003,08,26,03,22,18.20
2003,08,26,03,23,18.30
2003,08,26,03,24,18.30
2003,08,26,03,25,18.30
2003,08,26,03,26,18.30
2003,08,26,03,27,18.30
2003,08,26,03,28,18.40
2003,08,26,03,29,18.40
2003,08,26,03,30,18.40
2003,08,26,03,31,18.40
2003,08,26,03,32,18.40
2003,08,26,03,33,18.30
2003,08,26,03,34,18.40
2003,08,26,03,35,18.40
2003,08,26,03,36,18.40
2003,08,26,03,37,18.40
2003,08,26,03,38,18.40
2003,08,26,03,39,18.40
2003,08,26,03,40,18.50
2003,08,26,03,41,18.40
2003,08,26,03,42,18.40
2003,08,26,03,43,18.40
2003,08,26,03,44,18.40
2003,08,26,03,45,18.40
2003,08,26,03,46,18.50
2003,08,26,03,47,18.50
2003,08,26,03,48,18.50
2003,08,26,03,49,18.50
2003,08,26,03,50,18.40
2003,08,26,03,51,18.40
2003,08,26,03,52,18.30
2003,08,26,03,53,18.40
2003,08,26,03,54,18.30
2003,08,26,03,55,18.30
2003,08,26,03,56,18.30
2003,08,26,03,57,18.30
2003,08,26,03,58,18.20
2003,08,26,03,59,18.20
2003,08,26,04,00,18.20
2003,08,26,04,01,18.20
2003,08,26,04,02,18.20
2003,08,26,04,03,18.20
2003,08,26,04,04,18.20
2003,08,26,04,05,18.20
2003,08,26,04,06,18.10
2003,08,26,04,07,18.10
2003,08,26,04,08,18.00
2003,08,26,04,09,18.00
2003,08,26,04,10,18.00
2003,08,26,04,11,18.00
2003,08,26,04,12,18.00
2003,08,26,04,13,17.90
2003,08,26,04,14,17.90
2003,08,26,04,15,17.90
2003,08,26,04,16,17.90
2003,08,26,04,17,17.90
2003,08,26,04,18,17.90
2003,08,26,04,19,17.90
2003,08,26,04,20,17.90
2003,08,26,04,21,17.80
2003,08,26,04,22,17.80
2003,08,26,04,23,17.70
2003,08,26,04,24,17.70
2003,08,26,04,25,17.70
2003,08,26,04,26,17.80
2003,08,26,04,27,17.80
2003,08,26,04,28,17.80
2003,08,26,04,29,17.70
2003,08,26,04,30,17.70
2003,08,26,04,31,17.70
2003,08,26,04,32,17.70
2003,08,26,04,33,17.70
2003,08,26,04,34,17.70
2003,08,26,04,35,17.60
2003,08,26,04,36,17.60
2003,08,26,04,37,17.50
2003,08,26,04,38,17.50
2003,08,26,04,39,17.50
2003,08,26,04,40,17.50
2003,08,26,04,41,17.60
2003,08,26,04,42,17.60
2003,08,26,04,43,17.50
2003,08,26,04,44,17.50
2003,08,26,04,45,17.50
2003,08,26,04,46,17.50
2003,08,26,04,47,17.50
2003,08,26,04,48,17.50
2003,08,26,04,49,17.50
2003,08,26,04,50,17.50
2003,08,26,04,51,17.50
2003,08,26,04,52,17.40
2003,08,26,04,53,17.40
2003,08,26,04,54,17.40
2003,08,26,04,55,17.40
2003,08,26,04,56,17.40
2003,08,26,04,57,17.40
2003,08,26,04,58,17.30
2003,08,26,04,59,17.40
2003,08,26,05,00,17.30
2003,08,26,05,01,17.40
2003,08,26,05,02,17.30
2003,08,26,05,03,17.40
2003,08,26,05,04,17.40
2003,08,26,05,05,17.40
2003,08,26,05,06,17.50
2003,08,26,05,07,17.40
2003,08,26,05,08,17.40
2003,08,26,05,09,17.30
2003,08,26,05,10,17.30
2003,08,26,05,11,17.30
2003,08,26,05,12,17.30
2003,08,26,05,13,17.30
2003,08,26,05,14,17.30
2003,08,26,05,15,17.20
2003,08,26,05,16,17.10
2003,08,26,05,17,17.00
2003,08,26,05,18,17.00
2003,08,26,05,19,16.90
2003,08,26,05,20,16.90
2003,08,26,05,21,16.80
2003,08,26,05,22,16.80
2003,08,26,05,23,16.80
2003,08,26,05,24,16.80
2003,08,26,05,25,16.80
2003,08,26,05,26,16.80
2003,08,26,05,27,16.80
2003,08,26,05,28,16.80
2003,08,26,05,29,16.80
2003,08,26,05,30,16.80
2003,08,26,05,31,16.90
2003,08,26,05,32,16.90
2003,08,26,05,33,16.90
2003,08,26,05,34,16.90
2003,08,26,05,35,17.00
2003,08,26,05,36,17.00
2003,08,26,05,37,17.00
2003,08,26,05,38,17.00
2003,08,26,05,39,17.00
2003,08,26,05,40,17.00
2003,08,26,05,41,17.00
2003,08,26,05,42,17.00
2003,08,26,05,43,16.90
2003,08,26,05,44,16.90
2003,08,26,05,45,16.90
2003,08,26,05,46,16.90
2003,08,26,05,47,16.90
2003,08,26,05,48,17.00
2003,08,26,05,49,17.00
2003,08,26,05,50,16.90
2003,08,26,05,51,16.90
2003,08,26,05,52,17.00
2003,08,26,05,53,17.00
2003,08,26,05,54,17.00
2003,08,26,05,55,17.00
2003,08,26,05,56,16.90
2003,08,26,05,57,16.90
2003,08,26,05,58,16.90
2003,08,26,05,59,16.90
2003,08,26,06,00,16.90
2003,08,26,06,01,16.90
2003,08,26,06,02,16.90
2003,08,26,06,03,16.90
2003,08,26,06,04,16.90
2003,08,26,06,05,16.80
2003,08,26,06,06,16.80
2003,08,26,06,07,16.80
2003,08,26,06,08,16.80
2003,08,26,06,09,16.80
2003,08,26,06,10,16.80
2003,08,26,06,11,16.70
2003,08,26,06,12,16.70
2003,08,26,06,13,16.80
2003,08,26,06,14,16.80
2003,08,26,06,15,16.90
2003,08,26,06,16,16.90
2003,08,26,06,17,16.80
2003,08,26,06,18,16.80
2003,08,26,06,19,16.80
2003,08,26,06,20,16.80
2003,08,26,06,21,16.80
2003,08,26,06,22,16.80
2003,08,26,06,23,16.70
2003,08,26,06,24,16.70
2003,08,26,06,25,16.70
2003,08,26,06,26,16.70
2003,08,26,06,27,16.70
2003,08,26,06,28,16.70
2003,08,26,06,29,16.70
2003,08,26,06,30,16.70
2003,08,26,06,31,16.70
2003,08,26,06,32,16.70
2003,08,26,06,33,16.70
2003,08,26,06,34,16.70
2003,08,26,06,35,16.70
2003,08,26,06,36,16.70
2003,08,26,06,37,16.70
2003,08,26,06,38,16.70
2003,08,26,06,39,16.80
2003,08,26,06,40,16.90
2003,08,26,06,41,16.90
2003,08,26,06,42,16.90
2003,08,26,06,43,16.90
2003,08,26,06,44,17.00
2003,08,26,06,45,17.00
2003,08,26,06,46,17.00
2003,08,26,06,47,17.00
2003,08,26,06,48,17.00
2003,08,26,06,49,17.10
2003,08,26,06,50,17.10
2003,08,26,06,51,17.10
2003,08,26,06,52,17.10
2003,08,26,06,53,17.10
2003,08,26,06,54,17.10
2003,08,26,06,55,17.10
2003,08,26,06,56,17.20
2003,08,26,06,57,17.10
2003,08,26,06,58,17.10
2003,08,26,06,59,17.10
2003,08,26,07,00,17.10
2003,08,26,07,01,17.20
2003,08,26,07,02,17.30
2003,08,26,07,03,17.30
2003,08,26,07,04,17.30
2003,08,26,07,05,17.30
2003,08,26,07,06,17.30
2003,08,26,07,07,17.40
2003,08,26,07,08,17.40
2003,08,26,07,09,17.50
2003,08,26,07,10,17.50
2003,08,26,07,11,17.60
2003,08,26,07,12,17.60
2003,08,26,07,13,17.50
2003,08,26,07,14,17.50
2003,08,26,07,15,17.50
2003,08,26,07,16,17.60
2003,08,26,07,17,17.60
2003,08,26,07,18,17.60
2003,08,26,07,19,17.60
2003,08,26,07,20,17.50
2003,08,26,07,21,17.50
2003,08,26,07,22,17.50
2003,08,26,07,23,17.60
2003,08,26,07,24,17.70
2003,08,26,07,25,17.80
2003,08,26,07,26,17.80
2003,08,26,07,27,17.70
2003,08,26,07,28,17.60
2003,08,26,07,29,17.60
2003,08,26,07,30,17.70
2003,08,26,07,31,17.70
2003,08,26,07,32,17.70
2003,08,26,07,33,17.70
2003,08,26,07,34,17.70
2003,08,26,07,35,17.70
2003,08,26,07,36,17.70
2003,08,26,07,37,17.70
2003,08,26,07,38,17.70
2003,08,26,07,39,17.70
2003,08,26,07,40,17.70
2003,08,26,07,41,17.80
2003,08,26,07,42,17.80
2003,08,26,07,43,17.70
2003,08,26,07,44,17.70
2003,08,26,07,45,17.80
2003,08,26,07,46,17.90
2003,08,26,07,47,17.90
2003,08,26,07,48,17.90
2003,08,26,07,49,17.90
2003,08,26,07,50,17.90
2003,08,26,07,51,18.00
2003,08,26,07,52,18.10
2003,08,26,07,53,18.10
2003,08,26,07,54,18.20
2003,08,26,07,55,18.10
2003,08,26,07,56,18.20
2003,08,26,07,57,18.20
2003,08,26,07,58,18.20
2003,08,26,07,59,18.20
2003,08,26,08,00,18.10
2003,08,26,08,01,18.20
2003,08,26,08,02,18.20
2003,08,26,08,03,18.10
2003,08,26,08,04,18.10
2003,08,26,08,05,18.00
2003,08,26,08,06,17.90
2003,08,26,08,07,17.90
2003,08,26,08,08,17.90
2003,08,26,08,09,17.90
2003,08,26,08,10,17.90
2003,08,26,08,11,17.90
2003,08,26,08,12,18.00
2003,08,26,08,13,18.10
2003,08,26,08,14,18.10
2003,08,26,08,15,18.10
2003,08,26,08,16,18.10
2003,08,26,08,17,18.10
2003,08,26,08,18,18.20
2003,08,26,08,19,18.10
2003,08,26,08,20,18.20
2003,08,26,08,21,18.10
2003,08,26,08,22,18.10
2003,08,26,08,23,18.00
2003,08,26,08,24,18.00
2003,08,26,08,25,18.10
2003,08,26,08,26,18.20
2003,08,26,08,27,18.20
2003,08,26,08,28,18.20
2003,08,26,08,29,18.20
2003,08,26,08,30,18.20
2003,08,26,08,31,18.20
2003,08,26,08,32,18.30
2003,08,26,08,33,18.40
2003,08,26,08,34,18.50
2003,08,26,08,35,18.50
2003,08,26,08,36,18.50
2003,08,26,08,37,18.60
2003,08,26,08,38,18.60
2003,08,26,08,39,18.50
2003,08,26,08,40,18.50
2003,08,26,08,41,18.60
2003,08,26,08,42,18.60
2003,08,26,08,43,18.50
2003,08,26,08,44,18.50
2003,08,26,08,45,18.40
2003,08,26,08,46,18.30
2003,08,26,08,47,18.30
2003,08,26,08,48,18.30
2003,08,26,08,49,18.20
2003,08,26,08,50,18.30
2003,08,26,08,51,18.30
2003,08,26,08,52,18.20
2003,08,26,08,53,18.20
2003,08,26,08,54,18.20
2003,08,26,08,55,18.30
2003,08,26,08,56,18.30
2003,08,26,08,57,18.40
2003,08,26,08,58,18.40
2003,08,26,08,59,18.30
2003,08,26,09,00,18.30
2003,08,26,09,01,18.30
2003,08,26,09,02,18.30
2003,08,26,09,03,18.30
2003,08,26,09,04,18.40
2003,08,26,09,05,18.50
2003,08,26,09,06,18.60
2003,08,26,09,07,18.70
2003,08,26,09,08,18.90
2003,08,26,09,09,19.00
2003,08,26,09,10,19.10
2003,08,26,09,11,19.20
2003,08,26,09,12,19.30
2003,08,26,09,13,19.40
2003,08,26,09,14,19.40
2003,08,26,09,15,19.60
2003,08,26,09,16,19.70
2003,08,26,09,17,19.90
2003,08,26,09,18,20.00
2003,08,26,09,19,20.00
2003,08,26,09,20,20.10
2003,08,26,09,21,20.20
2003,08,26,09,22,20.30
2003,08,26,09,23,20.40
2003,08,26,09,24,20.50
2003,08,26,09,25,20.50
2003,08,26,09,26,20.60
2003,08,26,09,27,20.80
2003,08,26,09,28,20.80
2003,08,26,09,29,20.90
2003,08,26,09,30,20.90
2003,08,26,09,31,21.00
2003,08,26,09,32,21.00
2003,08,26,09,33,21.10
2003,08,26,09,34,21.20
2003,08,26,09,35,21.30
2003,08,26,09,36,21.40
2003,08,26,09,37,21.40
2003,08,26,09,38,21.40
2003,08,26,09,39,21.50
2003,08,26,09,40,21.50
2003,08,26,09,41,21.60
2003,08,26,09,42,21.60
2003,08,26,09,43,21.50
2003,08,26,09,44,21.60
2003,08,26,09,45,21.60
2003,08,26,09,46,21.50
2003,08,26,09,47,21.60
2003,08,26,09,48,21.70
2003,08,26,09,49,21.70
2003,08,26,09,50,21.60
2003,08,26,09,51,21.60
2003,08,26,09,52,21.60
2003,08,26,09,53,21.50
2003,08,26,09,54,21.60
2003,08,26,09,55,21.60
2003,08,26,09,56,21.50
2003,08,26,09,57,21.50
2003,08,26,09,58,21.50
2003,08,26,09,59,21.40
2003,08,26,10,00,21.30
2003,08,26,10,01,21.20
2003,08,26,10,02,21.40
2003,08,26,10,03,21.60
2003,08,26,10,04,21.70
2003,08,26,10,05,21.70
2003,08,26,10,06,21.70
2003,08,26,10,07,21.70
2003,08,26,10,08,21.80
2003,08,26,10,09,21.80
2003,08,26,10,10,21.70
2003,08,26,10,11,21.70
2003,08,26,10,12,21.90
2003,08,26,10,13,22.00
2003,08,26,10,14,22.00
2003,08,26,10,15,22.00
2003,08,26,10,16,21.80
2003,08,26,10,17,21.60
2003,08,26,10,18,21.70
2003,08,26,10,19,21.70
2003,08,26,10,20,21.70
2003,08,26,10,21,21.60
2003,08,26,10,22,21.70
2003,08,26,10,23,21.80
2003,08,26,10,24,21.80
2003,08,26,10,25,21.70
2003,08,26,10,26,21.90
2003,08,26,10,27,21.90
2003,08,26,10,28,21.90
2003,08,26,10,29,22.00
2003,08,26,10,30,22.00
2003,08,26,10,31,22.10
2003,08,26,10,32,22.10
2003,08,26,10,33,22.10
2003,08,26,10,34,22.00
2003,08,26,10,35,21.80
2003,08,26,10,36,21.80
2003,08,26,10,37,21.80
2003,08,26,10,38,21.60
2003,08,26,10,39,21.40
2003,08,26,10,40,21.50
2003,08,26,10,41,21.50
2003,08,26,10,42,21.50
2003,08,26,10,43,21.40
2003,08,26,10,44,21.30
2003,08,26,10,45,21.30
2003,08,26,10,46,21.30
2003,08,26,10,47,21.40
2003,08,26,10,48,21.40
2003,08,26,10,49,21.50
2003,08,26,10,50,21.40
2003,08,26,10,51,21.30
2003,08,26,10,52,21.40
2003,08,26,10,53,21.40
2003,08,26,10,54,21.40
2003,08,26,10,55,21.40
2003,08,26,10,56,21.20
2003,08,26,10,57,21.30
2003,08,26,10,58,21.30
2003,08,26,10,59,21.50
2003,08,26,11,00,21.70
2003,08,26,11,01,21.90
2003,08,26,11,02,22.10
2003,08,26,11,03,22.00
2003,08,26,11,04,21.90
2003,08,26,11,05,21.90
2003,08,26,11,06,21.80
2003,08,26,11,07,21.90
2003,08,26,11,08,22.00
2003,08,26,11,09,21.80
2003,08,26,11,10,21.60
2003,08,26,11,11,21.50
2003,08,26,11,12,21.60
2003,08,26,11,13,21.70
2003,08,26,11,14,21.60
2003,08,26,11,15,21.60
2003,08,26,11,16,21.50
2003,08,26,11,17,21.60
2003,08,26,11,18,21.60
2003,08,26,11,19,21.60
2003,08,26,11,20,21.80
2003,08,26,11,21,21.90
2003,08,26,11,22,22.10
2003,08,26,11,23,22.30
2003,08,26,11,24,22.20
2003,08,26,11,25,22.20
2003,08,26,11,26,22.10
2003,08,26,11,27,22.10
2003,08,26,11,28,22.20
2003,08,26,11,29,22.30
2003,08,26,11,30,22.20
2003,08,26,11,31,22.40
2003,08,26,11,32,22.50
2003,08,26,11,33,22.60
2003,08,26,11,34,22.70
2003,08,26,11,35,22.70
2003,08,26,11,36,22.70
2003,08,26,11,37,22.70
2003,08,26,11,38,22.80
2003,08,26,11,39,22.90
2003,08,26,11,40,23.10
2003,08,26,11,41,23.00
2003,08,26,11,42,23.00
2003,08,26,11,43,23.00
2003,08,26,11,44,23.10
2003,08,26,11,45,23.10
2003,08,26,11,46,22.90
2003,08,26,11,47,22.90
2003,08,26,11,48,22.90
2003,08,26,11,49,22.90
2003,08,26,11,50,23.00
2003,08,26,11,51,22.80
2003,08,26,11,52,22.90
2003,08,26,11,53,23.00
2003,08,26,11,54,22.90
2003,08,26,11,55,22.90
2003,08,26,11,56,22.90
2003,08,26,11,57,22.70
2003,08,26,11,58,22.70
2003,08,26,11,59,22.50
2003,08,26,12,00,22.50
2003,08,26,12,01,22.40
2003,08,26,12,02,22.30
2003,08,26,12,03,22.20
2003,08,26,12,04,22.30
2003,08,26,12,05,22.50
2003,08,26,12,06,22.70
2003,08,26,12,07,22.80
2003,08,26,12,08,22.80
2003,08,26,12,09,22.60
2003,08,26,12,10,22.70
2003,08,26,12,11,22.80
2003,08,26,12,12,22.80
2003,08,26,12,13,22.80
2003,08,26,12,14,22.80
2003,08,26,12,15,22.80
2003,08,26,12,16,22.70
2003,08,26,12,17,22.50
2003,08,26,12,18,22.40
2003,08,26,12,19,22.40
2003,08,26,12,20,22.60
2003,08,26,12,21,22.80
2003,08,26,12,22,22.80
2003,08,26,12,23,22.90
2003,08,26,12,24,23.10
2003,08,26,12,25,23.00
2003,08,26,12,26,23.00
2003,08,26,12,27,23.00
2003,08,26,12,28,22.90
2003,08,26,12,29,22.80
2003,08,26,12,30,22.80
2003,08,26,12,31,22.40
2003,08,26,12,32,22.00
2003,08,26,12,33,21.90
2003,08,26,12,34,21.90
2003,08,26,12,35,21.90
2003,08,26,12,36,21.80
2003,08,26,12,37,21.60
2003,08,26,12,38,21.60
2003,08,26,12,39,21.70
2003,08,26,12,40,21.60
2003,08,26,12,41,21.50
2003,08,26,12,42,21.50
2003,08,26,12,43,21.40
2003,08,26,12,44,21.20
2003,08,26,12,45,21.20
2003,08,26,12,46,21.30
2003,08,26,12,47,21.10
2003,08,26,12,48,21.00
2003,08,26,12,49,20.80
2003,08,26,12,50,20.90
2003,08,26,12,51,21.10
2003,08,26,12,52,21.30
2003,08,26,12,53,21.40
2003,08,26,12,54,21.20
2003,08,26,12,55,21.10
2003,08,26,12,56,20.80
2003,08,26,12,57,20.80
2003,08,26,12,58,20.80
2003,08,26,12,59,20.70
2003,08,26,13,00,20.70
2003,08,26,13,01,20.60
2003,08,26,13,02,20.60
2003,08,26,13,03,20.40
2003,08,26,13,04,20.30
2003,08,26,13,05,20.20
2003,08,26,13,06,20.20
2003,08,26,13,07,20.10
2003,08,26,13,08,19.90
2003,08,26,13,09,19.80
2003,08,26,13,10,19.50
2003,08,26,13,11,19.30
2003,08,26,13,12,19.30
2003,08,26,13,13,19.40
2003,08,26,13,14,19.40
2003,08,26,13,15,19.50
2003,08,26,13,16,19.60
2003,08,26,13,17,19.50
2003,08,26,13,18,19.60
2003,08,26,13,19,19.70
2003,08,26,13,20,19.70
2003,08,26,13,21,19.70
2003,08,26,13,22,19.60
2003,08,26,13,23,19.60
2003,08,26,13,24,19.60
2003,08,26,13,25,19.70
2003,08,26,13,26,19.60
2003,08,26,13,27,19.80
2003,08,26,13,28,19.90
2003,08,26,13,29,19.70
2003,08,26,13,30,19.80
2003,08,26,13,31,19.80
2003,08,26,13,32,19.90
2003,08,26,13,33,20.10
2003,08,26,13,34,20.40
2003,08,26,13,35,20.80
2003,08,26,13,36,20.90
2003,08,26,13,37,21.00
2003,08,26,13,38,21.00
2003,08,26,13,39,21.10
2003,08,26,13,40,21.30
2003,08,26,13,41,21.50
2003,08,26,13,42,21.60
2003,08,26,13,43,21.60
2003,08,26,13,44,21.60
2003,08,26,13,45,21.60
2003,08,26,13,46,21.50
2003,08,26,13,47,21.30
2003,08,26,13,48,21.30
2003,08,26,13,49,21.20
2003,08,26,13,50,21.10
2003,08,26,13,51,21.30
2003,08,26,13,52,21.30
2003,08,26,13,53,21.50
2003,08,26,13,54,21.70
2003,08,26,13,55,22.00
2003,08,26,13,56,22.00
2003,08,26,13,57,22.20
2003,08,26,13,58,22.20
2003,08,26,13,59,22.40
2003,08,26,14,00,22.50
2003,08,26,14,01,22.50
2003,08,26,14,02,22.40
2003,08,26,14,03,22.30
2003,08,26,14,04,22.20
2003,08,26,14,05,22.00
2003,08,26,14,06,21.90
2003,08,26,14,07,21.80
2003,08,26,14,08,21.70
2003,08,26,14,09,21.80
2003,08,26,14,10,21.90
2003,08,26,14,11,22.00
2003,08,26,14,12,22.00
2003,08,26,14,13,22.10
2003,08,26,14,14,22.10
2003,08,26,14,15,22.20
2003,08,26,14,16,22.20
2003,08,26,14,17,21.80
2003,08,26,14,18,21.80
2003,08,26,14,19,21.90
2003,08,26,14,20,22.20
2003,08,26,14,21,22.40
2003,08,26,14,22,22.60
2003,08,26,14,23,22.60
2003,08,26,14,24,22.70
2003,08,26,14,25,22.70
2003,08,26,14,26,22.60
2003,08,26,14,27,22.70
2003,08,26,14,28,22.90
2003,08,26,14,29,23.00
2003,08,26,14,30,23.00
2003,08,26,14,31,22.90
2003,08,26,14,32,22.90
2003,08,26,14,33,22.90
2003,08,26,14,34,22.90
2003,08,26,14,35,22.70
2003,08,26,14,36,22.50
2003,08,26,14,37,22.60
2003,08,26,14,38,22.70
2003,08,26,14,39,22.60
2003,08,26,14,40,22.40
2003,08,26,14,41,22.30
2003,08,26,14,42,22.30
2003,08,26,14,43,22.50
2003,08,26,14,44,22.50
2003,08,26,14,45,22.30
2003,08,26,14,46,22.30
2003,08,26,14,47,22.30
2003,08,26,14,48,22.30
2003,08,26,14,49,22.30
2003,08,26,14,50,22.10
2003,08,26,14,51,22.00
2003,08,26,14,52,22.00
2003,08,26,14,53,22.00
2003,08,26,14,54,22.10
2003,08,26,14,55,22.20
2003,08,26,14,56,22.20
2003,08,26,14,57,22.30
2003,08,26,14,58,22.60
2003,08,26,14,59,22.60
2003,08,26,15,00,22.50
2003,08,26,15,01,22.50
2003,08,26,15,02,22.20
2003,08,26,15,03,22.40
2003,08,26,15,04,22.50
2003,08,26,15,05,22.50
2003,08,26,15,06,22.60
2003,08,26,15,07,22.50
2003,08,26,15,08,22.40
2003,08,26,15,09,22.30
2003,08,26,15,10,22.30
2003,08,26,15,11,22.20
2003,08,26,15,12,22.00
2003,08,26,15,13,21.90
2003,08,26,15,14,21.90
2003,08,26,15,15,21.70
2003,08,26,15,16,21.20
2003,08,26,15,17,21.10
2003,08,26,15,18,21.00
2003,08,26,15,19,21.10
2003,08,26,15,20,21.20
2003,08,26,15,21,21.30
2003,08,26,15,22,21.50
2003,08,26,15,23,21.60
2003,08,26,15,24,21.50
2003,08,26,15,25,21.40
2003,08,26,15,26,21.50
2003,08,26,15,27,21.20
2003,08,26,15,28,21.20
2003,08,26,15,29,21.30
2003,08,26,15,30,21.50
2003,08,26,15,31,21.70
2003,08,26,15,32,21.80
2003,08,26,15,33,21.90
2003,08,26,15,34,21.90
2003,08,26,15,35,21.90
2003,08,26,15,36,21.90
2003,08,26,15,37,22.00
2003,08,26,15,38,22.00
2003,08,26,15,39,22.00
2003,08,26,15,40,22.00
2003,08,26,15,41,22.00
2003,08,26,15,42,22.10
2003,08,26,15,43,22.20
2003,08,26,15,44,22.20
2003,08,26,15,45,22.20
2003,08,26,15,46,22.10
2003,08,26,15,47,22.20
2003,08,26,15,48,22.40
2003,08,26,15,49,22.40
2003,08,26,15,50,22.20
2003,08,26,15,51,21.90
2003,08,26,15,52,21.80
2003,08,26,15,53,21.80
2003,08,26,15,54,21.90
2003,08,26,15,55,21.90
2003,08,26,15,56,21.90
2003,08,26,15,57,22.00
2003,08,26,15,58,22.20
2003,08,26,15,59,22.20
2003,08,26,16,00,22.20
2003,08,26,16,01,22.10
2003,08,26,16,02,22.00
2003,08,26,16,03,22.00
2003,08,26,16,04,21.90
2003,08,26,16,05,21.90
2003,08,26,16,06,21.80
2003,08,26,16,07,21.70
2003,08,26,16,08,21.50
2003,08,26,16,09,21.50
2003,08,26,16,10,21.50
2003,08,26,16,11,21.60
2003,08,26,16,12,21.40
2003,08,26,16,13,21.30
2003,08,26,16,14,21.30
2003,08,26,16,15,21.30
2003,08,26,16,16,21.30
2003,08,26,16,17,21.20
2003,08,26,16,18,21.20
2003,08,26,16,19,21.10
2003,08,26,16,20,21.20
2003,08,26,16,21,21.30
2003,08,26,16,22,21.30
2003,08,26,16,23,21.30
2003,08,26,16,24,21.30
2003,08,26,16,25,21.40
2003,08,26,16,26,21.50
2003,08,26,16,27,21.50
2003,08,26,16,28,21.40
2003,08,26,16,29,21.30
2003,08,26,16,30,21.30
2003,08,26,16,31,21.30
2003,08,26,16,32,21.20
2003,08,26,16,33,21.10
2003,08,26,16,34,21.10
2003,08,26,16,35,21.20
2003,08,26,16,36,21.20
2003,08,26,16,37,21.30
2003,08,26,16,38,21.20
2003,08,26,16,39,21.30
2003,08,26,16,40,21.40
2003,08,26,16,41,21.30
2003,08,26,16,42,21.30
2003,08,26,16,43,21.30
2003,08,26,16,44,21.30
2003,08,26,16,45,21.20
2003,08,26,16,46,21.20
2003,08,26,16,47,21.20
2003,08,26,16,48,21.20
2003,08,26,16,49,21.30
2003,08,26,16,50,21.40
2003,08,26,16,51,21.50
2003,08,26,16,52,21.50
2003,08,26,16,53,21.60
2003,08,26,16,54,21.50
2003,08,26,16,55,21.40
2003,08,26,16,56,21.40
2003,08,26,16,57,21.30
2003,08,26,16,58,21.20
2003,08,26,16,59,21.20
2003,08,26,17,00,21.30
2003,08,26,17,01,21.30
2003,08,26,17,02,21.40
2003,08,26,17,03,21.50
2003,08,26,17,04,21.50
2003,08,26,17,05,21.40
2003,08,26,17,06,21.50
2003,08,26,17,07,21.50
2003,08,26,17,08,21.40
2003,08,26,17,09,21.50
2003,08,26,17,10,21.50
2003,08,26,17,11,21.50
2003,08,26,17,12,21.50
2003,08,26,17,13,21.40
2003,08,26,17,14,21.30
2003,08,26,17,15,21.30
2003,08,26,17,16,21.30
2003,08,26,17,17,21.30
2003,08,26,17,18,21.20
2003,08,26,17,19,21.30